Main page
METAR-TAF:

METAR-TAF

Airports :

La Grande/Union County Airport

La Grande, Oregon, United States

latitude: 45-17N, longitude: 118-00W, elevation: 2713 ft

Current weather observation

The report was made 16 minutes ago, at 06:56 UTC
Calm wind
Temperature 48°F
Humidity 87%
Pressure 29.90 in. Hg
Visibility: 10 miles
Broken clouds at a height of 3300 ft
Overcast at a height of 4100 ft
light rain

METAR: KLGD 220656Z AUTO 00000KT 10SM -RA BKN033 OVC041 09/07 A2990 RMK AO2 SLP120 P0001 T00890072

Time: 00:12 (07:12 UTC)


TAF: missing

Weather observations and forecasts of more than 4000 airports (METAR and TAF reports).

The available stations are represented by yellow and red dots on the map.

Hover mouse over dot to see the name of the station.

Then click to see weather observations and forecasts.

To change the map : click on the green buttons with a black cross to zoom in, on the green button with a dash to zoom out, or on the green arrows for adjacent maps.


METAR-TAF: